Wolf Creek, OR

12:57 AM PDT on July 26, 2016 (GMT -0700)
Sexton Summit

Weather History for KSXT - December, 2012

Change the Weather History Date:

Monday, December 31, 2012

  Actual Average Record
Temperature  
Mean Temperature 29 °F -  
Max Temperature 33 °F 39 °F 55 °F (1997)
Min Temperature 25 °F 32 °F 19 °F (2010)
Degree Days  
Heating Degree Days 36    
Moisture  
Dew Point 24 °F    
Average Humidity 85    
Maximum Humidity 100    
Minimum Humidity 60    
Precipitation  
Precipitation 0.05 in - - ()
Sea Level Pressure  
Sea Level Pressure 30.22 in    
Wind  
Wind Speed 8 mph (SE)    
Max Wind Speed 14 mph    
Max Gust Speed 18 mph    
Visibility 5 miles    
Events Fog , Snow    
Averages and records for this station are not official NWS values.
T = Trace of Precipitation, MM = Missing Value Source: NWS Daily Summary

Daily Weather History Graph

Daily Weather History Graph

Search for Another Location

Airport or City:

Trip Planner

Search our weather history database for the weather conditions in past years. The results will help you decide how hot, cold, wet, or windy it might be!

Date:

Astronomy

Dec. 31, 2012 Rise Set
Actual Time 7:43 AM PST 4:50 PM PST
Civil Twilight 7:11 AM PST 5:22 PM PST
Nautical Twilight 6:35 AM PST 5:57 PM PST
Astronomical Twilight 6:01 AM PST 6:32 PM PST
Moon 8:31 PM PST (12/31) 9:23 AM PST (12/31)
Length of Visible Light 10h 10m
Length of Day
9h 06m
Waning Gibbous, 89% of the Moon is Illuminated
Dec 31
Waning Gibbous
Jan 4
Last Quarter
Jan 11
New
Jan 18
First Quarter
Jan 26
Full

Hourly Weather History & Observations

Time (PST) Temp. Windchill Dew Point Humidity Pressure Visibility Wind Dir Wind Speed Gust Speed Precip Events Conditions
12:56 AM 27.0 °F 16.1 °F 24.1 °F 89% 30.26 in 10.0 mi SE 12.7 mph - N/A   Unknown
1:56 AM 27.0 °F 16.7 °F 21.9 °F 81% 30.27 in 10.0 mi ESE 11.5 mph - N/A   Unknown
2:56 AM 26.1 °F 15.6 °F 21.0 °F 81% 30.27 in 10.0 mi ESE 11.5 mph - 0.03 in   Unknown
3:56 AM 25.0 °F 14.2 °F 19.9 °F 81% 30.27 in 10.0 mi ESE 11.5 mph - N/A   Unknown
4:56 AM 26.1 °F 15.0 °F 19.9 °F 78% 30.27 in 10.0 mi SE 12.7 mph - N/A   Unknown
5:56 AM 26.1 °F 16.2 °F 19.9 °F 78% 30.27 in 10.0 mi SE 10.4 mph - N/A   Unknown
6:56 AM 27.0 °F 18.7 °F 19.9 °F 75% 30.28 in 10.0 mi ESE 8.1 mph - N/A   Unknown
7:56 AM 26.1 °F 16.8 °F 19.9 °F 78% 30.28 in 10.0 mi SE 9.2 mph - N/A   Unknown
8:56 AM 26.1 °F 14.5 °F 19.9 °F 78% 30.27 in 10.0 mi SE 13.8 mph - N/A   Unknown
9:56 AM 27.0 °F 16.7 °F 19.9 °F 75% 30.28 in 10.0 mi SE 11.5 mph - N/A   Unknown
10:10 AM 26.6 °F 19.1 °F 19.4 °F 74% 30.18 in 0.8 mi SE 6.9 mph 18.4 mph N/A   Haze
10:13 AM 26.6 °F 18.2 °F 21.2 °F 80% 30.18 in 4.0 mi SSE 8.1 mph - N/A   Haze
10:56 AM 30.9 °F 25.2 °F 19.0 °F 61% 30.29 in 10.0 mi SSW 5.8 mph - N/A   Overcast
11:04 AM 30.2 °F 24.3 °F 19.4 °F 64% 30.19 in 10.0 mi West 5.8 mph - N/A   Overcast
11:25 AM 30.2 °F 23.4 °F 26.6 °F 86% 30.19 in 2.5 mi NW 6.9 mph - 0.00 in   Overcast
11:33 AM 30.2 °F 26.7 °F 28.4 °F 93% 30.18 in 10.0 mi NNW 3.5 mph - 0.00 in   Overcast
11:56 AM 32.0 °F 27.5 °F 26.1 °F 79% 30.27 in 10.0 mi NNW 4.6 mph - 0.00 in   Overcast
12:56 PM 33.1 °F - 21.9 °F 64% 30.25 in 10.0 mi Calm Calm - N/A   Overcast
1:12 PM 33.8 °F - 21.2 °F 60% 30.15 in 10.0 mi Calm Calm - N/A   Overcast
1:34 PM 32.0 °F 28.7 °F 24.8 °F 75% 30.14 in 10.0 mi SE 3.5 mph - N/A   Overcast
1:56 PM 30.0 °F 25.2 °F 23.0 °F 75% 30.24 in 10.0 mi SSE 4.6 mph - N/A   Overcast
2:56 PM 30.9 °F 25.2 °F 24.1 °F 76% 30.24 in 10.0 mi South 5.8 mph - N/A   Overcast
3:44 PM 28.4 °F 22.2 °F 24.8 °F 86% 30.15 in 10.0 mi Variable 5.8 mph - N/A   Mostly Cloudy
3:56 PM 28.9 °F 21.1 °F 24.1 °F 82% 30.26 in 10.0 mi SSE 8.1 mph - N/A   Mostly Cloudy
4:43 PM 28.4 °F 20.4 °F 23.0 °F 80% 30.16 in 10.0 mi SSE 8.1 mph - N/A   Mostly Cloudy
4:56 PM 28.9 °F 25.2 °F 23.0 °F 78% 30.27 in 5.0 mi South 3.5 mph - 0.00 in Snow Light Snow
5:01 PM 28.4 °F 23.3 °F 23.0 °F 80% 30.17 in 1.8 mi South 4.6 mph - N/A Snow Light Snow
5:04 PM 28.4 °F 24.6 °F 23.0 °F 80% 30.17 in 1.0 mi South 3.5 mph - 0.00 in Snow Light Snow
5:15 PM 28.4 °F 22.2 °F 24.8 °F 86% 30.17 in 2.0 mi SSE 5.8 mph - 0.00 in Snow Light Snow
5:22 PM 28.4 °F 22.2 °F 24.8 °F 86% 30.17 in 9.0 mi SSE 5.8 mph - 0.00 in   Overcast
5:33 PM 28.4 °F 20.4 °F 24.8 °F 86% 30.17 in 7.0 mi SSE 8.1 mph - 0.00 in   Overcast
5:56 PM 28.0 °F 21.7 °F 25.0 °F 88% 30.29 in 5.0 mi SSE 5.8 mph - 0.00 in Snow Light Snow
6:56 PM 28.0 °F 24.2 °F 26.1 °F 92% 30.28 in 5.0 mi ESE 3.5 mph - 0.00 in Snow Light Snow
7:01 PM 28.4 °F - 26.6 °F 93% 30.18 in 1.8 mi Calm Calm - 0.00 in Snow Light Snow
7:10 PM 28.4 °F 22.2 °F 26.6 °F 93% 30.18 in 1.2 mi ESE 5.8 mph - 0.01 in Snow Light Snow
7:23 PM 28.4 °F 22.2 °F 26.6 °F 93% 30.18 in 0.5 mi ESE 5.8 mph - 0.01 in Fog Light Freezing Fog
7:37 PM 28.4 °F 22.2 °F 26.6 °F 93% 30.18 in 1.2 mi SE 5.8 mph - 0.01 in   Overcast
7:39 PM 28.4 °F 21.2 °F 26.6 °F 93% 30.18 in 2.0 mi SSE 6.9 mph - 0.01 in   Overcast
7:45 PM 28.4 °F 22.2 °F 26.6 °F 93% 30.18 in 1.0 mi SSE 5.8 mph - 0.01 in Snow Light Snow
7:48 PM 28.4 °F 23.3 °F 26.6 °F 93% 30.18 in 0.5 mi SSE 4.6 mph - 0.01 in Fog , Snow Light Snow
7:56 PM 28.9 °F 23.9 °F 28.0 °F 96% 30.29 in 0.5 mi SSE 4.6 mph - 0.01 in Fog , Snow Light Snow
8:07 PM 28.4 °F 22.2 °F 26.6 °F 93% 30.18 in 0.5 mi SE 5.8 mph - 0.00 in Fog , Snow Light Snow
8:32 PM 28.4 °F 23.3 °F 26.6 °F 93% 30.18 in 0.2 mi SSE 4.6 mph - 0.01 in Fog , Snow Light Snow
8:56 PM 28.0 °F 24.2 °F 27.0 °F 96% 30.30 in 0.2 mi SSE 3.5 mph - 0.01 in Fog Light Freezing Fog
9:45 PM 28.4 °F 24.6 °F 26.6 °F 93% 30.20 in 0.2 mi SE 3.5 mph - N/A Fog Light Freezing Fog
9:56 PM 28.0 °F 22.8 °F 27.0 °F 96% 30.31 in 0.2 mi SE 4.6 mph - N/A Fog Light Freezing Fog
10:56 PM 28.0 °F - 27.0 °F 96% 30.30 in 0.2 mi Calm Calm - N/A Fog Light Freezing Fog
11:10 PM 28.4 °F - 26.6 °F 93% 30.22 in 0.2 mi Calm Calm - N/A Fog Light Freezing Fog
11:18 PM 28.4 °F 23.3 °F 26.6 °F 93% 30.22 in 0.2 mi ENE 4.6 mph - N/A Fog Light Freezing Fog
11:24 PM 28.4 °F 22.2 °F 28.4 °F 100% 30.21 in 1.2 mi ENE 5.8 mph - N/A   Overcast
11:26 PM 28.4 °F 23.3 °F 28.4 °F 100% 30.21 in 4.0 mi ENE 4.6 mph - N/A   Overcast
11:39 PM 28.4 °F 23.3 °F 28.4 °F 100% 30.21 in 1.2 mi ESE 4.6 mph - N/A   Overcast
11:43 PM 28.4 °F 24.6 °F 26.6 °F 93% 30.21 in 0.2 mi East 3.5 mph - N/A Fog Light Freezing Fog
11:56 PM 28.0 °F - 28.0 °F 100% 30.31 in 0.5 mi Calm Calm - N/A Fog Light Freezing Fog